When you browse on this site, cookies collect data to enhance your experience and personalize the content and advertising you see.
Visit our Privacy Policy to learn more. By continuing to use the site, you agree to this use of cookies and data.
  • In Hungary
  • List of Countries
  • For 7 days
  • Water Temperature
  • Satellite Maps
  • Weather Map
  • News
  • Weather Widgets
  • user-avatar
    Login

    Hourly Weather Kormend

    Today, 17 June, Monday

    Time Temperature Precipitation Wind Pressure Humidity
    00:00 +19°C° 0.3 mm 4 mps 747 mmHg 82%
    01:00 +18°C° 0.3 mm 4 mps 747 mmHg 85%
    02:00 +18°C° 0.1 mm 4 mps 747 mmHg 84%
    03:00 +18°C° 0.1 mm 4 mps 747 mmHg 83%
    04:00 +16°C° 0.1 mm 5 mps 746 mmHg 82%
    05:00 +19°C° 0 mm 5 mps 746 mmHg 79%
    06:00 +20°C° 0 mm 6 mps 747 mmHg 75%
    07:00 +21°C° 0 mm 6 mps 747 mmHg 72%
    08:00 +22°C° 0 mm 6 mps 747 mmHg 69%
    09:00 +23°C° 0 mm 7 mps 747 mmHg 65%
    10:00 +24°C° 0 mm 7 mps 747 mmHg 62%
    11:00 +24°C° 0 mm 6 mps 747 mmHg 62%
    12:00 +26°C° 0 mm 6 mps 747 mmHg 62%
    13:00 +26°C° 0 mm 6 mps 746 mmHg 63%
    14:00 +26°C° 0.4 mm 5 mps 746 mmHg 66%
    15:00 +26°C° 0.4 mm 5 mps 746 mmHg 69%
    16:00 +26°C° 0.4 mm 5 mps 746 mmHg 72%
    17:00 +23°C° 0.5 mm 4 mps 745 mmHg 79%
    18:00 +22°C° 0.5 mm 3 mps 745 mmHg 85%
    19:00 +21°C° 0.5 mm 2 mps 745 mmHg 91%
    20:00 +20°C° 0 mm 2 mps 746 mmHg 92%
    21:00 +19°C° 0 mm 2 mps 746 mmHg 94%
    22:00 +19°C° 0 mm 1 mps 746 mmHg 95%
    23:00 +19°C° 0 mm 1 mps 746 mmHg 94%

    Tomorrow, 18 June, Tuesday

    Time Temperature Precipitation Wind Pressure Humidity
    00:00 +19°C° 0 mm 1 mps 746 mmHg 93%
    01:00 +19°C° 0 mm 1 mps 746 mmHg 91%
    02:00 +19°C° 0.1 mm 1 mps 745 mmHg 92%
    03:00 +19°C° 0.1 mm 1 mps 745 mmHg 92%
    04:00 +19°C° 0.1 mm 1 mps 745 mmHg 92%
    05:00 +19°C° 0 mm 1 mps 745 mmHg 90%
    06:00 +20°C° 0 mm 1 mps 745 mmHg 87%
    07:00 +20°C° 0 mm 1 mps 745 mmHg 85%
    08:00 +22°C° 0 mm 1 mps 745 mmHg 79%
    09:00 +23°C° 0 mm 1 mps 745 mmHg 74%
    10:00 +25°C° 0 mm 1 mps 745 mmHg 69%
    11:00 +26°C° 0 mm 1 mps 745 mmHg 66%
    12:00 +27°C° 0 mm 1 mps 745 mmHg 62%
    13:00 +28°C° 0 mm 1 mps 744 mmHg 59%
    14:00 +28°C° 0.2 mm 1 mps 744 mmHg 61%
    15:00 +28°C° 0.2 mm 1 mps 744 mmHg 62%
    16:00 +28°C° 0.2 mm 1 mps 743 mmHg 64%
    17:00 +26°C° 0 mm 1 mps 743 mmHg 70%
    18:00 +25°C° 0 mm 1 mps 743 mmHg 76%
    19:00 +24°C° 0 mm 1 mps 743 mmHg 81%
    20:00 +23°C° 0 mm 1 mps 743 mmHg 85%
    21:00 +22°C° 0 mm 1 mps 743 mmHg 88%
    22:00 +21°C° 0 mm 1 mps 743 mmHg 91%
    23:00 +21°C° 0 mm 1 mps 743 mmHg 91%

    Day after tomorrow, 19 June, Wednesday

    Time Temperature Precipitation Wind Pressure Humidity
    00:00 +20°C° 0 mm 1 mps 743 mmHg 92%
    01:00 +18°C° 0 mm 0 mps 743 mmHg 92%
    02:00 +18°C° 0 mm 0 mps 743 mmHg 92%
    03:00 +17°C° 0 mm 0 mps 743 mmHg 93%
    04:00 +17°C° 0 mm 0 mps 743 mmHg 93%
    05:00 +19°C° 0 mm 0 mps 743 mmHg 89%
    06:00 +20°C° 0 mm 0 mps 743 mmHg 84%
    07:00 +22°C° 0 mm 0 mps 743 mmHg 80%
    08:00 +25°C° 0 mm 1 mps 743 mmHg 74%
    09:00 +26°C° 0 mm 1 mps 743 mmHg 69%
    10:00 +28°C° 0 mm 2 mps 743 mmHg 64%
    11:00 +29°C° 0.1 mm 2 mps 743 mmHg 60%
    12:00 +29°C° 0.1 mm 2 mps 742 mmHg 57%
    13:00 +30°C° 0.1 mm 2 mps 742 mmHg 54%
    14:00 +30°C° 0.2 mm 2 mps 742 mmHg 56%
    15:00 +30°C° 0.2 mm 2 mps 741 mmHg 57%
    16:00 +30°C° 0.2 mm 3 mps 741 mmHg 59%
    17:00 +28°C° 0.9 mm 3 mps 741 mmHg 67%
    18:00 +27°C° 0.9 mm 3 mps 741 mmHg 75%
    19:00 +25°C° 0.9 mm 3 mps 741 mmHg 83%
    20:00 +24°C° 0.5 mm 2 mps 741 mmHg 86%
    21:00 +21°C° 0.5 mm 2 mps 742 mmHg 88%
    22:00 +20°C° 0.5 mm 2 mps 742 mmHg 91%
    23:00 +21°C° 0.1 mm 1 mps 742 mmHg 91%

    20 June, Thursday

    Time Temperature Precipitation Wind Pressure Humidity
    00:00 +20°C° 0.1 mm 1 mps 742 mmHg 91%
    01:00 +18°C° 0.1 mm 0 mps 741 mmHg 91%
    02:00 +18°C° 0 mm 0 mps 742 mmHg 91%
    03:00 +18°C° 0 mm 0 mps 742 mmHg 91%
    04:00 +17°C° 0 mm 0 mps 742 mmHg 91%
    05:00 +19°C° 0.2 mm 0 mps 742 mmHg 89%
    06:00 +20°C° 0.2 mm 0 mps 742 mmHg 86%
    07:00 +21°C° 0.2 mm 0 mps 743 mmHg 83%
    08:00 +25°C° 0.1 mm 1 mps 743 mmHg 76%
    09:00 +27°C° 0.1 mm 1 mps 743 mmHg 69%
    10:00 +29°C° 0.1 mm 1 mps 743 mmHg 61%
    11:00 +29°C° 0.5 mm 1 mps 743 mmHg 58%
    12:00 +30°C° 0.5 mm 1 mps 742 mmHg 55%
    13:00 +31°C° 0.5 mm 1 mps 742 mmHg 52%
    14:00 +31°C° 0.2 mm 1 mps 742 mmHg 52%
    15:00 +31°C° 0.2 mm 1 mps 742 mmHg 52%
    16:00 +30°C° 0.2 mm 2 mps 741 mmHg 53%
    17:00 +29°C° 0.5 mm 2 mps 741 mmHg 60%
    18:00 +28°C° 0.5 mm 1 mps 741 mmHg 67%
    19:00 +26°C° 0.5 mm 1 mps 741 mmHg 74%
    20:00 +25°C° 0.6 mm 1 mps 742 mmHg 78%
    21:00 +24°C° 0.6 mm 1 mps 742 mmHg 83%
    22:00 +22°C° 0.6 mm 1 mps 742 mmHg 87%
    23:00 +22°C° 0.8 mm 1 mps 742 mmHg 88%

    21 June, Friday

    Time Temperature Precipitation Wind Pressure Humidity
    00:00 +22°C° 0.8 mm 1 mps 743 mmHg 90%
    01:00 +22°C° 0.8 mm 1 mps 743 mmHg 91%
    02:00 +21°C° 0.1 mm 1 mps 743 mmHg 91%
    03:00 +21°C° 0.1 mm 1 mps 743 mmHg 91%
    04:00 +21°C° 0.1 mm 1 mps 743 mmHg 91%
    05:00 +21°C° 0.1 mm 2 mps 743 mmHg 90%
    06:00 +21°C° 0.1 mm 2 mps 743 mmHg 89%
    07:00 +22°C° 0.1 mm 3 mps 744 mmHg 88%
    08:00 +25°C° 0.1 mm 3 mps 743 mmHg 81%
    09:00 +26°C° 0.1 mm 2 mps 743 mmHg 74%
    10:00 +28°C° 0.1 mm 2 mps 743 mmHg 67%
    11:00 +28°C° 0.9 mm 2 mps 743 mmHg 65%
    12:00 +29°C° 0.9 mm 2 mps 743 mmHg 64%
    13:00 +30°C° 0.9 mm 2 mps 742 mmHg 62%
    14:00 +30°C° 0.8 mm 1 mps 742 mmHg 61%
    15:00 +30°C° 0.8 mm 1 mps 742 mmHg 60%
    16:00 +30°C° 0.8 mm 1 mps 741 mmHg 58%
    17:00 +29°C° 0 mm 1 mps 741 mmHg 63%
    18:00 +28°C° 0 mm 1 mps 741 mmHg 68%
    19:00 +26°C° 0 mm 2 mps 741 mmHg 73%
    20:00 +25°C° 0 mm 2 mps 741 mmHg 74%
    21:00 +24°C° 0 mm 2 mps 741 mmHg 74%
    22:00 +23°C° 0 mm 2 mps 742 mmHg 74%
    23:00 +21°C° 0 mm 2 mps 741 mmHg 77%

    22 June, Saturday

    Time Temperature Precipitation Wind Pressure Humidity
    00:00 +20°C° 0 mm 2 mps 741 mmHg 80%
    01:00 +19°C° 0 mm 2 mps 741 mmHg 82%
    02:00 +19°C° 0 mm 2 mps 741 mmHg 85%
    03:00 +19°C° 0 mm 1 mps 741 mmHg 88%
    04:00 +18°C° 0 mm 1 mps 741 mmHg 91%
    05:00 +19°C° 0 mm 2 mps 742 mmHg 86%
    06:00 +20°C° 0 mm 2 mps 742 mmHg 82%
    07:00 +23°C° 0 mm 2 mps 743 mmHg 77%
    08:00 +24°C° 0 mm 2 mps 743 mmHg 72%
    09:00 +26°C° 0 mm 2 mps 743 mmHg 67%
    10:00 +27°C° 0 mm 2 mps 743 mmHg 62%
    11:00 +28°C° 0.4 mm 3 mps 743 mmHg 61%
    12:00 +28°C° 0.4 mm 3 mps 742 mmHg 60%
    13:00 +29°C° 0.4 mm 3 mps 742 mmHg 59%
    14:00 +28°C° 2.8 mm 3 mps 743 mmHg 65%
    15:00 +27°C° 2.8 mm 3 mps 743 mmHg 71%
    16:00 +26°C° 2.8 mm 3 mps 743 mmHg 77%
    17:00 +23°C° 3 mm 4 mps 743 mmHg 82%
    18:00 +22°C° 3 mm 4 mps 743 mmHg 87%
    19:00 +20°C° 3 mm 5 mps 744 mmHg 93%
    20:00 +19°C° 0.8 mm 5 mps 744 mmHg 92%
    21:00 +19°C° 0.8 mm 4 mps 745 mmHg 91%
    22:00 +18°C° 0.8 mm 4 mps 745 mmHg 90%
    23:00 +17°C° 0.1 mm 4 mps 746 mmHg 91%
    Show more